| time (UTC) | temp F | wind direction | speed knots | gust knots | rain 1hr in | rain 24hr in | rain mn in | humidity % | barometer mb |
| 20260902113016 | 50 | 88 | 0.0 | 0.0 | 0.00 | 0.00 | 0.01 | 85 | 1004.5 |
| 20260902111516 | 50 | 88 | 0.0 | 0.0 | 0.00 | 0.00 | 0.01 | 85 | 1004.5 |
| 20260902104618 | 50 | 88 | 0.0 | 0.0 | 0.00 | 0.00 | 0.01 | 84 | 1004.3 |
| 20260902103040 | 50 | 88 | 0.0 | 0.0 | 0.00 | 0.00 | 0.01 | 83 | 1004.2 |
| 20260902101540 | 51 | 88 | 0.0 | 0.0 | 0.00 | 0.00 | 0.01 | 84 | 1004.1 |
| 20260902100022 | 51 | 88 | 0.0 | 0.0 | 0.00 | 0.00 | 0.01 | 83 | 1004.1 |
| 20260902094521 | 51 | 88 | 0.0 | 0.0 | 0.00 | 0.00 | 0.01 | 82 | 1004.1 |
| 20260902093002 | 52 | 88 | 0.0 | 0.0 | 0.00 | 0.00 | 0.01 | 83 | 1004.2 |
| 20260902091501 | 52 | 88 | 0.0 | 0.0 | 0.00 | 0.00 | 0.01 | 82 | 1004.4 |
| 20260902090041 | 52 | 88 | 0.0 | 0.0 | 0.00 | 0.00 | 0.01 | 81 | 1004.8 |
| 20260902084540 | 52 | 88 | 0.0 | 0.0 | 0.00 | 0.00 | 0.01 | 80 | 1005.0 |
| 20260902083028 | 53 | 88 | 0.0 | 0.0 | 0.00 | 0.00 | 0.01 | 76 | 1004.9 |
| 20260902081527 | 54 | 88 | 0.0 | 0.0 | 0.00 | 0.00 | 0.01 | 74 | 1004.9 |
| 20260902080027 | 56 | 88 | 0.0 | 0.0 | 0.00 | 0.00 | 0.01 | 72 | 1004.9 |
| 20260902074527 | 60 | 88 | 0.0 | 0.0 | 0.00 | 0.00 | 0.01 | 63 | 1004.9 |
| 20260902073027 | 64 | 88 | 0.0 | 0.0 | 0.00 | 0.00 | 0.01 | 59 | 1005.0 |
| 20260902071533 | 65 | 88 | 0.9 | 0.0 | 0.00 | 0.00 | 0.01 | 57 | 1005.0 |
| 20260902070026 | 65 | 89 | 2.6 | 0.0 | 0.00 | 0.00 | 0.01 | 58 | 1004.9 |
| 20260902064524 | 63 | 34 | 0.9 | 0.0 | 0.00 | 0.00 | 0.01 | 62 | 1005.0 |
| 20260902063005 | 62 | 34 | 0.9 | 0.0 | 0.00 | 0.00 | 0.01 | 66 | 1005.2 |
| 20260902061506 | 58 | 32 | 0.0 | 0.0 | 0.00 | 0.00 | 0.01 | 75 | 1005.3 |
| 20260902060111 | 58 | 32 | 0.9 | 0.0 | 0.00 | 0.00 | 0.01 | 73 | 1005.2 |
| 20260902054547 | 59 | 37 | 0.0 | 0.0 | 0.00 | 0.00 | 0.01 | 72 | 1005.3 |
| 20260902053029 | 59 | 37 | 0.0 | 0.0 | 0.00 | 0.00 | 0.01 | 70 | 1005.8 |
| 20260902051529 | 60 | 37 | 0.0 | 0.0 | 0.00 | 0.00 | 0.01 | 69 | 1005.8 |
| 20260902050014 | 60 | 38 | 0.0 | 0.0 | 0.00 | 0.00 | 0.01 | 70 | 1005.5 |
| 20260902044526 | 61 | 38 | 0.0 | 0.0 | 0.00 | 0.00 | 0.01 | 67 | 1005.2 |
| 20260902043056 | 62 | 38 | 0.0 | 0.0 | 0.00 | 0.00 | 0.01 | 68 | 1005.2 |
| 20260902041552 | 61 | 38 | 0.0 | 0.0 | 0.00 | 0.00 | 0.01 | 69 | 1005.3 |
| 20260902040035 | 61 | 71 | 0.9 | 0.0 | 0.00 | 0.00 | 0.01 | 68 | 1005.5 |
| 20260902034533 | 62 | 103 | 0.0 | 0.0 | 0.00 | 0.00 | 0.01 | 64 | 1005.5 |
| 20260902033014 | 64 | 103 | 0.0 | 0.0 | 0.00 | 0.00 | 0.01 | 62 | 1005.3 |
| 20260902031519 | 65 | 103 | 0.9 | 0.0 | 0.00 | 0.00 | 0.01 | 60 | 1005.3 |
| 20260902030057 | 65 | 98 | 0.9 | 0.0 | 0.00 | 0.00 | 0.01 | 60 | 1005.4 |
| 20260902024607 | 66 | 82 | 0.0 | 0.0 | 0.00 | 0.00 | 0.01 | 60 | 1005.4 |
| 20260902023040 | 66 | 82 | 1.7 | 0.0 | 0.00 | 0.00 | 0.01 | 60 | 1005.5 |
| 20260902021544 | 66 | 53 | 0.9 | 0.0 | 0.00 | 0.00 | 0.01 | 62 | 1005.5 |
| 20260902020019 | 66 | 22 | 0.0 | 0.0 | 0.00 | 0.00 | 0.01 | 64 | 1005.5 |
| 20260902014541 | 65 | 22 | 0.9 | 0.0 | 0.00 | 0.00 | 0.01 | 65 | 1005.5 |
| 20260902013001 | 65 | 22 | 0.0 | 0.0 | 0.00 | 0.00 | 0.01 | 65 | 1005.2 |
| 20260902011501 | 65 | 22 | 1.7 | 0.0 | 0.00 | 0.00 | 0.01 | 64 | 1005.3 |
| 20260902010049 | 66 | 21 | 2.6 | 0.0 | 0.00 | 0.00 | 0.01 | 64 | 1005.9 |
| 20260902004546 | 65 | 323 | 0.9 | 0.0 | 0.00 | 0.00 | 0.01 | 66 | 1005.9 |
| 20260902003045 | 65 | 55 | 3.5 | 0.0 | 0.00 | 0.00 | 0.01 | 67 | 1005.8 |
| 20260902001545 | 65 | 65 | 2.6 | 0.0 | 0.00 | 0.00 | 0.01 | 65 | 1006.1 |
| 20260902000046 | 65 | 65 | 5.2 | 0.0 | 0.00 | 0.00 | 0.01 | 64 | 1005.8 |
| 20260901234600 | 65 | 73 | 7.8 | 0.0 | 0.00 | 0.00 | 0.01 | 65 | 1005.8 |
| 20260901233052 | 65 | 62 | 6.1 | 0.0 | 0.00 | 0.00 | 0.01 | 62 | 1006.0 |
| 20260901231544 | 66 | 48 | 3.5 | 0.0 | 0.00 | 0.00 | 0.01 | 61 | 1006.2 |
| 20260901230049 | 65 | 346 | 0.9 | 0.0 | 0.00 | 0.00 | 0.01 | 63 | 1006.3 |
| 20260901224544 | 65 | 303 | 0.0 | 0.0 | 0.00 | 0.00 | 0.01 | 65 | 1006.9 |
| 20260901223023 | 65 | 303 | 3.5 | 0.0 | 0.00 | 0.00 | 0.01 | 64 | 1007.2 |
| 20260901221555 | 66 | 300 | 4.3 | 0.0 | 0.00 | 0.00 | 0.01 | 61 | 1007.4 |
| 20260901220012 | 66 | 292 | 3.5 | 0.0 | 0.00 | 0.00 | 0.00 | 58 | 1007.2 |
| 20260901214503 | 70 | 290 | 3.5 | 0.0 | 0.00 | 0.00 | 0.00 | 48 | 1007.4 |
| 20260901213047 | 70 | 305 | 4.3 | 0.0 | 0.00 | 0.00 | 0.00 | 48 | 1007.1 |
| 20260901211543 | 72 | 292 | 3.5 | 0.0 | 0.00 | 0.00 | 0.00 | 42 | 1007.2 |
| 20260901210026 | 74 | 307 | 0.0 | 0.0 | 0.00 | 0.00 | 0.00 | 41 | 1006.4 |
| 20260901204533 | 73 | 307 | 0.0 | 0.0 | 0.00 | 0.00 | 0.00 | 39 | 1006.4 |
| 20260901203009 | 73 | 307 | 0.0 | 0.0 | 0.00 | 0.00 | 0.00 | 39 | 1006.2 |
| 20260901201521 | 73 | 307 | 0.9 | 0.0 | 0.00 | 0.00 | 0.00 | 39 | 1006.1 |
| 20260901200106 | 74 | 308 | 3.5 | 0.0 | 0.00 | 0.00 | 0.00 | 38 | 1006.1 |
| 20260901194547 | 80 | 261 | 1.7 | 0.0 | 0.00 | 0.00 | 0.00 | 30 | 1005.9 |
| 20260901193057 | 81 | 267 | 2.6 | 0.0 | 0.00 | 0.00 | 0.00 | 23 | 1005.9 |
| 20260901191528 | 81 | 200 | 3.5 | 0.0 | 0.00 | 0.00 | 0.00 | 23 | 1005.9 |
| 20260901190031 | 80 | 293 | 2.6 | 0.0 | 0.00 | 0.00 | 0.00 | 26 | 1005.9 |
| 20260901184506 | 77 | 200 | 1.7 | 0.0 | 0.00 | 0.00 | 0.00 | 30 | 1006.0 |
| 20260901183005 | 77 | 203 | 4.3 | 0.0 | 0.00 | 0.00 | 0.00 | 29 | 1006.0 |
| 20260901181546 | 78 | 217 | 5.2 | 0.0 | 0.00 | 0.00 | 0.00 | 28 | 1005.8 |
| 20260901180045 | 79 | 175 | 2.6 | 0.0 | 0.00 | 0.00 | 0.00 | 29 | 1005.5 |
| 20260901174529 | 78 | 166 | 2.6 | 0.0 | 0.00 | 0.00 | 0.00 | 29 | 1005.5 |
| 20260901173022 | 76 | 168 | 0.9 | 0.0 | 0.00 | 0.00 | 0.00 | 32 | 1005.5 |
| 20260901171502 | 74 | 168 | 1.7 | 0.0 | 0.00 | 0.00 | 0.00 | 34 | 1005.5 |
| 20260901170100 | 73 | 217 | 0.0 | 0.0 | 0.00 | 0.00 | 0.00 | 36 | 1005.6 |
| 20260901164537 | 71 | 219 | 0.9 | 0.0 | 0.00 | 0.00 | 0.00 | 39 | 1005.8 |
| 20260901163034 | 69 | 219 | 0.9 | 0.0 | 0.00 | 0.00 | 0.00 | 43 | 1005.9 |
| 20260901161524 | 66 | 221 | 0.0 | 0.0 | 0.00 | 0.00 | 0.00 | 48 | 1005.9 |
| 20260901160015 | 63 | 221 | 0.0 | 0.0 | 0.00 | 0.00 | 0.00 | 53 | 1005.7 |
| 20260901154546 | 60 | 221 | 0.0 | 0.0 | 0.00 | 0.00 | 0.00 | 58 | 1005.8 |
| 20260901153042 | 59 | 221 | 0.0 | 0.0 | 0.00 | 0.00 | 0.00 | 61 | 1006.1 |
| 20260901151522 | 58 | 214 | 0.9 | 0.0 | 0.00 | 0.00 | 0.00 | 65 | 1006.1 |
| 20260901150018 | 55 | 5 | 0.0 | 0.0 | 0.00 | 0.00 | 0.00 | 71 | 1005.9 |
| 20260901144557 | 52 | 5 | 0.0 | 0.0 | 0.00 | 0.00 | 0.00 | 70 | 1006.4 |
| 20260901143057 | 52 | 5 | 0.0 | 0.0 | 0.00 | 0.00 | 0.00 | 76 | 1006.5 |
| 20260901141536 | 48 | 5 | 0.0 | 0.0 | 0.00 | 0.00 | 0.00 | 81 | 1006.6 |
| 20260901140030 | 45 | 5 | 0.0 | 0.0 | 0.00 | 0.00 | 0.00 | 81 | 1007.1 |
| 20260901134520 | 44 | 5 | 0.0 | 0.0 | 0.00 | 0.00 | 0.00 | 81 | 1007.0 |
| 20260901133013 | 44 | 5 | 0.0 | 0.0 | 0.00 | 0.00 | 0.00 | 79 | 1007.1 |
| 20260901131554 | 44 | 5 | 0.0 | 0.0 | 0.00 | 0.00 | 0.00 | 79 | 1007.0 |
| 20260901130107 | 44 | 5 | 0.0 | 0.0 | 0.00 | 0.00 | 0.00 | 78 | 1007.3 |
| 20260901124541 | 45 | 5 | 0.0 | 0.0 | 0.00 | 0.00 | 0.00 | 78 | 1007.2 |
| 20260901123036 | 45 | 5 | 0.0 | 0.0 | 0.00 | 0.00 | 0.00 | 78 | 1007.2 |
| 20260901121518 | 45 | 5 | 0.0 | 0.0 | 0.00 | 0.00 | 0.00 | 77 | 1007.2 |
| 20260901120016 | 45 | 5 | 0.0 | 0.0 | 0.00 | 0.00 | 0.00 | 77 | 1007.3 |
| 20260901114600 | 46 | 5 | 0.0 | 0.0 | 0.00 | 0.00 | 0.00 | 76 | 1007.5 |